Regional Weather Roundup
Issued by NWS

Home | Current Version | Previous Version | Text Only | Print | Product List | Glossary On
Versions: 1 2 3 4 5 6 7 8 9 10 11 12 13 14 15 16 17 18 19 20 21 22 23 24 25 26 27 28 29 30 31 32 33 34 35 36 37 38 39 40 41 42 43 44 45 46 47 48 49 50
000
ASUS46 KSEW 012310
RWRWA

WASHINGTON REGIONAL WEATHER ROUNDUP
NATIONAL WEATHER SERVICE SEATTLE WA
400 PM PDT WED JUL 01 2015

NOTE:"FAIR" INDICATES FEW OR NO CLOUDS BELOW 12,000 FEET WITH NO
SIGNIFICANT WEATHER AND/OR OBSTRUCTIONS TO VISIBILITY.

WAZ505-507>509-020000-
SEATTLE, TACOMA, EVERETT, AND VICINITY

CITY           SKY/WX    TMP DP  RH WIND       PRES   REMARKS
EVERETT        SUNNY     82  56  40 N8        30.01S
BOEING FIELD   SUNNY     87  53  31 NW12G20   29.96F
RENTON         SUNNY     87  57  35 NW13      29.95F
SEATAC AIRPORT SUNNY     88  55  32 N12       29.98F
JBLM-MCCHORD   SUNNY     88  55  32 N12       29.97F
PUYALLUP       FAIR      90  55  31 CALM      29.98F
BREMERTON      SUNNY     88  57  35 NE8       30.00S
JBLM-FT LEWIS  SUNNY     88  55  31 N9        29.96F
TACOMA NARROWS SUNNY     82  56  40 NE7       29.97F
$$

WAZ001-503-506-510-514-515-020000-
NORTH INTERIOR

CITY           SKY/WX    TMP DP  RH WIND       PRES   REMARKS
BELLINGHAM     SUNNY     83  60  45 VRB5      29.99F
FRIDAY HARBOR  SUNNY     86  55  34 N10       30.00F
EASTSOUND      SUNNY     72  59  64 N5        29.99F
PORT ANGELES   SUNNY     87  52  29 E6        30.01F
PORT TOWNSEND  FAIR      82  55  39 NW8       29.99S
NAS WHIDBEY    SUNNY     75  56  51 W8        30.03F
ARLINGTON      SUNNY     84  61  45 NW14      29.98S
BURLINGTON     SUNNY     81  59  47 NW15      29.99S
$$

WAZ020-022-039-040-504-511-512-020000-
SOUTHWEST INTERIOR

CITY           SKY/WX    TMP DP  RH WIND       PRES   REMARKS
SHELTON        SUNNY     92  55  28 SE5       29.93F HX  90
OLYMPIA        SUNNY     91  52  26 NE8       29.96F
CHEHALIS       FAIR      91  57  31 NE17      29.95F HX  90
KELSO          SUNNY    N/A N/A N/A NW13G18   29.93F
VANCOUVER      SUNNY     93  53  25 NW10      29.88F HX  90
SCAPPOOSE, OR  SUNNY     95  52  23 N10       29.88F HX  92
PORTLAND, OR   SUNNY     92  56  29 NW10      29.88F HX  90
$$

WAZ021-516-517-020000-
WASHINGTON COAST

CITY           SKY/WX    TMP DP  RH WIND       PRES   REMARKS
FORKS          SUNNY     82  56  40 NW12      30.00F
HOQUIAM        SUNNY     75  61  61 SW14      29.98F
ASTORIA, OR    SUNNY     78  58  49 NW20G28   29.95F
$$

WAZ019-023-024-040-518-519-020000-
CASCADE MOUNTAINS AND COLUMBIA GORGE

CITY           SKY/WX    TMP DP  RH WIND       PRES   REMARKS
TROUTDALE, OR  SUNNY     95  54  25 VRB6      29.86F HX  93
THE DALLES, OR SUNNY    103  42  12 NW3       29.82F HX  98
$$

WAZ026-027-041>044-520-521-020000-
EAST SLOPES

CITY           SKY/WX    TMP DP  RH WIND       PRES   REMARKS
OMAK           SUNNY     95  44  17 N8G20     29.95F HX  91
WENATCHEE      SUNNY     97  41  14 E5        29.90F HX  92
ELLENSBURG     SUNNY    100  43  14 E7        29.94F HX  96
YAKIMA         SUNNY    100  50  18 NE12      29.90F HX  97
$$

WAZ028-034-035-020000-
COLUMBIA BASIN

CITY           SKY/WX    TMP DP  RH WIND       PRES   REMARKS
EPHRATA        SUNNY     99  40  13 MISG      29.92F HX  94
MOSES LAKE     SUNNY     98  45  16 W7        29.92F HX  94
PASCO          SUNNY    100  49  17 N7        29.87F HX  97
HERMISTON, OR  SUNNY    100  51  19 NE10      29.87F HX  97
$$

WAZ036>038-020000-
NORTHEAST WASHINGTON

CITY           SKY/WX    TMP DP  RH WIND       PRES   REMARKS
SPOKANE GEIGER MOSUNNY   93  43  17 W8        29.97F
SPOKANE FELTS  SUNNY     95  44  17 VRB6      29.95F HX  91
FAIRCHILD AFB  SUNNY     93  42  16 VRB7      29.98F
COEURDALENE,ID SUNNY     93  48  21 W14       29.95F HX  90
DEER PARK      SUNNY     92  45  19 SW5       29.97F
$$

WAZ029>033-020000-
SOUTHEAST WASHINGTON

CITY           SKY/WX    TMP DP  RH WIND       PRES   REMARKS
PULLMAN        SUNNY     92  45  19 VRB5      30.01F
LEWISTON, ID   SUNNY    100  44  14 W9        29.90F HX  96
WALLA WALLA    SUNNY     99  47  17 S9        29.90F HX  95
PENDLETON, OR  SUNNY     99  44  15 VRB7      29.90F HX  95
$$



USA.gov is the U.S. government's official web portal to all federal, state and local government web resources and services.